Wind_Speed
17 10 11 13 14 17 17 17 12 3 3 9 12 11 9 10 8 7 9 8 9 10 10 10 11 10 9 8 8 12 15 16 16 15 13 13 14 14 14 14 12 14 12 9 10 8 7 8 12 12 11 12 13 12 13 13 13 11 11 11 11 11 10 9 9 8 7 7 6 4 3 2 1 2 3 3 4 3 4 4 4 3 3 3 3 4
15 12 14 17 15 17 18 17 12 6 4 6 9 9 8 8 8 8 8 8 6 7 7 9 12 10 7 8 7 11 13 12 14 14 12 15 14 13 15 17 13 8 8 8 7 6 4 3 5 8 10 10 10 12 12 12 13 13 12 11 11 11 10 8 7 6 6 6 4 3 2 1 1 1 3 3 4 4 4 5 4 4 5 5 4 4
12 12 16 19 15 15 16 15 12 8 7 6 7 8 8 7 9 8 7 10 7 5 8 11 11 9 7 8 7 7 11 10 12 13 14 15 14 13 15 17 17 14 12 9 5 6 5 4 6 8 10 10 11 12 12 12 13 13 13 12 11 10 8 8 7 6 5 4 2 1 1 2 3 3 4 4 4 4 4 4 4 4 3 4 4 4
11 12 16 17 14 14 15 14 12 10 8 7 7 9 8 9 10 8 8 10 7 5 10 12 9 6 6 7 7 6 10 12 10 11 13 14 13 15 17 17 18 18 17 12 8 8 7 5 7 7 8 9 11 12 12 12 12 12 12 11 10 9 8 7 6 5 3 2 2 3 4 5 5 5 5 4 3 3 3 3 4 4 3 4 4 4
11 11 15 15 14 15 15 14 14 10 8 8 9 8 8 12 10 8 11 11 8 7 11 12 7 4 4 5 5 5 9 12 12 12 13 13 14 16 17 16 16 18 18 16 14 12 9 7 8 6 7 9 11 13 13 12 11 11 11 10 10 8 8 7 5 3 2 3 5 7 7 7 6 5 4 3 3 5 5 6 7 6 5 6 6 6
11 10 14 16 15 16 15 14 15 12 8 8 9 6 5 12 11 12 16 13 9 8 11 12 7 5 6 7 6 6 7 11 13 14 14 14 16 17 16 14 14 15 18 18 16 13 11 11 8 6 8 10 12 14 13 12 11 10 10 9 8 6 5 5 5 4 3 4 5 5 5 5 4 3 3 4 5 6 7 8 8 6 6 7 7 7
8 11 14 16 17 18 15 13 15 15 8 7 10 5 4 11 13 15 17 13 9 8 11 12 9 5 7 9 9 8 8 11 12 13 15 16 16 16 16 16 14 14 18 20 17 14 13 12 10 9 11 11 12 14 13 13 12 10 9 7 5 4 3 4 5 5 4 4 3 2 2 2 2 2 5 6 6 6 7 8 7 7 8 8 9 10
9 14 15 16 17 16 14 12 14 17 10 5 12 11 7 10 13 15 15 11 8 8 10 11 9 6 7 9 11 10 9 11 12 12 14 15 14 14 15 16 14 13 17 20 18 16 15 14 11 10 11 11 11 12 11 11 10 8 6 5 4 3 3 3 4 4 3 2 3 3 3 4 3 4 6 6 6 7 7 8 8 9 10 10 11 11
10 14 15 17 16 12 12 12 14 18 10 6 12 13 9 9 11 12 11 8 7 8 9 11 10 8 7 9 11 12 11 12 13 14 14 16 16 14 14 14 13 13 15 17 18 17 16 14 12 10 11 11 11 10 9 8 8 7 6 6 4 2 2 3 3 3 4 5 5 4 3 3 4 3 3 4 4 5 6 7 8 8 8 8 8 8
9 14 15 15 13 10 12 12 14 17 10 8 12 11 8 7 8 9 8 6 8 8 10 12 13 10 7 9 11 12 12 13 13 13 14 17 17 15 15 14 13 13 14 16 17 16 16 16 16 16 14 13 12 10 9 9 9 8 6 5 3 1 1 3 4 5 6 8 8 5 3 2 2 2 2 2 2 2 2 3 3 4 4 5 5 6
10 14 14 13 11 10 12 11 15 18 11 10 11 10 8 7 6 6 5 5 8 9 10 14 15 12 8 8 11 11 12 14 13 12 14 18 19 18 17 16 15 15 15 16 18 19 19 19 20 19 17 15 13 12 10 9 8 6 4 3 1 3 4 5 6 6 7 8 8 8 6 4 2 2 1 1 2 2 2 2 3 3 4 5 6 7
12 13 11 10 11 11 12 11 14 17 12 10 11 9 9 7 5 5 5 5 7 8 10 14 15 13 10 7 10 12 12 14 15 15 17 20 21 20 18 18 17 16 16 17 20 22 22 23 22 20 19 18 15 12 10 8 7 5 4 3 4 5 6 6 6 7 7 8 8 7 7 6 5 2 1 1 1 2 3 3 4 4 5 6 8 9
11 11 10 10 10 12 13 11 10 11 11 11 11 10 9 8 7 8 7 7 8 5 5 11 14 12 8 3 10 15 13 13 16 17 20 22 23 21 20 19 18 18 18 17 20 21 21 22 22 22 21 19 16 13 10 8 7 5 5 4 5 6 6 6 7 7 7 8 8 7 6 7 6 3 1 1 1 3 4 5 6 6 7 8 9 10
10 10 12 12 10 14 15 11 10 10 12 13 11 11 10 8 8 9 8 8 8 4 5 9 10 9 7 3 5 12 13 14 17 18 21 25 24 22 21 20 18 19 19 18 19 19 18 19 19 20 20 18 15 12 10 8 6 5 5 4 5 6 5 6 7 8 8 7 6 6 6 5 3 1 2 3 5 7 7 7 7 8 9 10 11 12
11 8 12 13 10 15 16 12 11 11 12 13 11 10 10 8 7 8 7 8 9 6 7 9 8 6 7 4 2 3 7 11 16 18 19 20 22 22 21 19 19 19 18 19 19 17 17 17 17 18 18 16 14 11 9 8 6 5 5 4 6 6 5 6 7 7 6 6 5 5 4 1 1 3 5 6 8 9 9 8 9 10 10 10 12 13
11 7 13 14 9 15 17 13 13 12 10 11 10 10 10 8 6 4 1 2 5 7 7 8 5 2 2 3 2 1 5 9 14 19 22 20 21 23 22 20 20 19 19 20 18 17 18 17 17 19 17 15 13 11 9 8 6 5 5 4 5 7 6 5 4 3 2 1 0 1 2 4 5 6 8 10 10 10 9 10 10 10 11 13 14 14
10 7 15 15 8 15 18 13 14 13 9 8 10 10 7 5 4 4 3 4 3 6 7 7 6 3 3 4 5 5 7 11 14 19 23 23 24 25 22 22 22 21 20 20 18 18 19 17 18 19 16 14 13 11 10 9 7 6 5 4 5 5 4 3 3 3 4 5 5 6 6 7 8 9 10 10 10 10 10 11 12 13 14 15 15 15
7 7 14 16 10 15 19 14 14 15 10 6 10 10 6 1 3 4 5 4 6 7 5 7 9 8 7 6 7 8 11 14 14 18 22 24 26 26 23 23 23 22 21 20 19 19 18 17 18 17 15 14 12 10 9 9 7 5 4 3 4 3 4 5 5 5 6 7 7 7 8 9 10 10 11 11 12 12 12 13 14 15 16 16 16 16
6 6 10 14 13 14 15 13 13 14 10 6 9 11 8 5 6 6 6 6 9 8 5 8 10 9 8 7 9 12 15 16 17 18 19 22 26 26 24 25 25 23 23 22 21 20 19 18 17 16 15 13 12 10 10 9 6 4 3 2 3 3 6 6 6 7 7 7 7 8 9 10 11 12 13 14 14 15 15 16 17 17 16 16 16 16
7 4 8 12 13 13 12 11 11 12 9 7 8 10 9 7 6 7 7 5 7 8 6 7 8 8 8 8 11 15 16 18 19 18 19 22 25 26 26 27 27 27 26 24 23 22 20 19 18 16 15 14 13 12 11 9 6 4 2 2 3 5 8 8 8 8 8 8 8 10 11 11 13 15 16 16 17 17 17 17 17 17 16 16 16 16
7 4 6 10 11 11 10 10 11 12 12 9 8 10 10 6 2 5 8 6 6 7 6 6 6 6 5 5 10 16 16 18 20 18 18 22 26 27 27 28 29 29 27 25 24 23 22 20 18 16 15 14 13 12 11 9 6 4 2 3 4 8 8 8 9 8 8 9 9 10 12 13 15 16 16 17 18 18 18 17 17 17 16 16 17 17
6 5 7 9 9 10 10 12 14 13 13 13 9 9 11 8 5 6 8 8 7 6 5 5 6 4 3 1 5 12 14 16 19 19 19 22 26 26 27 29 29 28 27 25 24 24 23 21 19 17 16 15 14 12 10 8 6 4 4 3 5 8 9 8 9 8 8 9 9 11 13 15 16 16 16 17 17 17 18 17 17 17 17 17 17 17
3 4 8 8 9 9 8 10 14 12 13 14 11 10 10 9 9 9 7 8 8 7 4 4 4 2 4 3 2 6 11 15 18 20 19 21 24 25 28 29 27 26 26 25 25 25 23 22 19 18 17 16 15 13 10 8 7 5 5 5 7 9 9 9 9 8 9 9 10 12 15 16 16 16 17 18 17 18 18 18 18 17 17 17 17 17
2 4 7 8 8 8 5 6 8 9 11 13 11 11 11 10 11 10 7 5 7 9 7 4 5 3 3 1 2 6 12 16 18 20 20 20 22 26 28 27 25 25 25 24 26 26 23 21 20 19 19 18 16 13 10 10 8 6 5 6 8 10 10 10 9 9 10 10 11 14 16 16 16 17 18 18 18 19 19 18 18 17 17 17 17 17
5 6 7 7 8 9 7 7 9 10 10 9 9 12 12 12 13 9 4 3 5 9 10 8 7 3 3 1 5 9 13 15 17 18 19 21 23 26 26 25 24 24 24 25 29 28 23 20 20 20 20 19 16 13 12 11 8 6 5 6 8 10 10 10 10 10 11 11 13 15 16 17 18 18 19 19 19 19 19 18 18 17 17 17 17 17
6 5 7 8 8 9 9 8 9 10 9 8 10 14 15 15 15 10 6 6 6 8 9 9 6 4 4 3 8 12 13 14 17 18 20 22 23 24 25 25 24 24 27 29 30 26 23 21 21 21 21 19 17 15 14 12 9 6 5 7 8 9 10 11 11 11 12 12 14 16 17 18 19 19 20 19 19 19 18 18 18 17 17 17 17 17
5 5 8 8 6 7 9 7 7 9 11 11 12 14 15 15 15 11 8 8 8 6 8 9 7 5 7 8 11 14 14 15 17 20 22 23 23 24 24 23 23 26 31 33 30 25 24 23 22 22 20 19 18 16 15 13 10 7 7 9 10 10 11 12 12 13 13 14 16 18 19 20 20 20 19 19 19 18 18 18 17 17 16 16 17 17
4 6 9 7 2 1 1 4 8 11 13 14 14 15 15 16 16 13 11 9 8 7 7 8 9 7 8 12 14 15 16 15 18 23 25 24 24 25 23 23 27 31 35 34 29 25 25 24 24 22 20 18 18 17 16 14 11 9 10 11 11 11 12 13 14 13 14 16 19 20 20 20 20 20 19 19 18 18 18 17 17 16 16 16 16 17
5 6 9 8 2 4 5 6 5 8 12 13 15 16 16 17 18 17 15 12 9 8 6 7 10 11 9 14 17 18 18 18 20 24 25 24 25 25 26 29 33 33 32 31 28 26 26 25 24 22 19 18 19 18 17 14 12 12 12 13 12 12 13 14 14 14 15 18 20 20 21 20 20 20 19 19 18 17 17 17 16 16 16 15 15 16
6 5 7 9 7 3 3 4 3 5 8 10 14 16 16 18 19 17 16 16 13 10 7 5 9 10 6 9 15 16 17 18 20 22 24 25 26 27 29 32 33 31 29 29 28 28 26 25 24 21 19 19 20 19 18 15 14 14 14 14 14 14 14 14 15 15 17 19 20 20 20 20 20 19 19 18 18 17 17 16 16 16 15 15 15 16
6 4 7 8 7 5 4 2 1 3 4 7 11 12 13 15 17 17 16 15 13 11 8 7 9 7 2 5 11 17 18 19 21 24 26 26 28 30 31 32 31 29 28 28 28 27 26 25 24 22 20 21 22 20 18 17 17 16 15 15 15 14 14 14 15 16 18 19 20 20 20 20 20 19 18 18 17 17 16 16 16 15 15 15 16 17
7 3 5 7 7 6 6 4 4 3 3 7 9 10 11 12 13 13 12 11 12 12 11 10 10 7 5 9 13 18 19 19 22 26 27 27 30 32 32 33 32 29 28 29 28 28 27 25 24 23 23 23 23 21 19 19 18 17 16 16 15 15 15 14 16 17 18 19 18 18 19 20 19 19 18 18 17 17 16 16 16 16 16 16 17 17
9 5 5 7 7 6 7 5 4 4 6 8 6 5 9 11 11 9 8 9 13 13 10 10 10 7 9 13 14 16 17 19 24 29 30 31 33 32 32 33 32 30 30 30 29 29 28 26 25 24 24 24 23 22 20 20 19 17 17 16 16 16 15 15 17 18 18 18 18 19 20 20 19 19 18 18 17 17 16 16 16 17 17 18 18 18
12 9 5 7 7 6 7 5 4 7 7 4 1 2 1 6 11 12 10 11 14 11 6 4 5 7 13 15 16 18 20 22 25 28 29 31 33 33 32 32 31 31 32 31 31 31 30 27 25 25 25 24 23 21 21 20 19 17 17 16 16 17 17 17 18 19 18 17 18 19 21 20 20 19 18 18 17 17 17 17 17 18 19 19 19 19
11 9 6 5 6 5 6 5 7 9 4 2 3 2 3 1 4 8 7 8 12 12 7 4 4 9 12 14 16 18 20 20 21 23 26 28 31 32 32 32 33 33 33 31 30 31 31 29 27 26 25 24 23 23 22 20 19 18 17 16 17 18 18 19 19 19 18 18 19 21 21 21 20 19 18 18 18 17 18 18 19 19 20 20 19 19
9 8 5 5 5 4 5 7 8 3 2 3 2 1 2 1 3 5 4 8 12 13 11 9 7 8 10 11 13 14 15 17 17 20 24 26 30 32 33 32 33 34 35 34 34 34 34 31 29 28 27 25 25 25 23 21 19 18 18 18 19 20 20 20 20 20 20 20 21 21 22 21 20 19 19 18 18 18 19 19 20 20 20 20 20 20
10 9 6 5 5 4 5 8 5 0 2 4 3 5 7 4 6 7 6 8 13 13 13 11 8 9 11 12 14 16 17 16 13 15 23 27 29 32 32 31 34 37 37 37 38 37 34 31 30 31 30 28 27 25 23 21 20 19 20 20 21 21 21 21 21 21 22 22 22 22 22 21 20 19 19 18 18 19 19 19 20 20 20 20 20 20
8 8 8 7 5 5 7 8 7 5 6 6 4 7 8 3 3 6 4 4 10 14 16 13 10 12 13 14 18 20 17 12 8 12 24 29 29 32 32 31 34 36 35 35 36 37 34 32 32 32 30 29 27 25 23 22 21 21 22 22 23 23 22 22 22 23 23 23 22 22 22 20 19 19 18 18 18 19 20 19 19 20 20 19 20 20
6 6 7 7 6 6 8 8 8 7 6 3 5 8 9 5 4 5 5 5 9 16 19 16 13 15 16 18 22 19 13 9 7 13 27 32 32 34 33 31 32 31 31 35 38 37 34 33 32 31 30 29 27 25 24 23 22 23 23 24 24 23 22 22 23 24 24 24 24 23 21 20 19 18 18 18 18 18 19 19 19 19 19 19 19 19
8 6 6 8 7 8 8 8 7 5 2 4 6 8 9 8 5 5 7 5 7 16 21 18 17 19 20 22 22 16 11 7 3 11 29 33 32 34 32 30 32 32 33 38 40 36 34 33 33 32 31 30 28 26 24 23 23 24 24 24 24 23 23 23 24 25 25 25 24 22 21 20 19 18 17 17 17 18 18 18 17 18 19 18 18 17
8 6 7 8 7 8 9 8 7 4 3 5 7 10 11 8 5 7 5 1 5 13 18 17 18 20 23 25 21 14 9 2 2 16 33 34 33 34 31 31 33 33 35 40 39 36 36 35 33 32 30 29 28 26 25 25 25 25 25 25 24 23 24 24 25 26 26 25 23 22 21 19 18 18 17 17 17 17 17 17 16 17 17 17 16 16
8 7 7 8 8 7 7 7 8 5 3 6 9 10 8 6 5 4 1 4 3 10 14 14 16 19 22 23 18 10 4 4 9 23 34 34 33 34 33 34 35 36 39 41 39 37 37 35 33 31 30 29 28 27 26 26 26 27 26 25 24 24 25 25 26 26 25 23 22 21 20 19 18 18 17 17 16 16 16 16 15 16 16 16 16 16
7 8 8 7 7 6 6 7 8 5 5 13 14 8 4 4 0 2 2 3 2 9 13 13 14 17 19 20 15 8 7 10 17 25 31 31 33 34 34 35 35 37 41 43 41 39 37 34 33 32 31 30 29 28 27 27 28 28 26 25 25 25 26 26 25 24 23 21 21 21 20 19 17 17 17 16 16 15 15 15 15 15 15 14 13 14
4 6 6 6 6 6 6 7 4 2 7 17 13 3 2 2 4 5 2 2 3 7 11 12 13 16 18 19 16 11 11 15 20 25 29 30 31 33 35 35 35 39 44 44 42 40 37 35 34 33 32 31 29 28 28 28 29 28 26 26 26 26 27 26 24 23 22 21 21 20 19 18 17 17 16 16 15 15 14 15 14 13 13 12 10 9
1 0 2 2 5 4 3 1 2 4 9 14 6 5 3 4 3 5 3 3 2 6 9 10 12 15 17 17 16 14 14 17 21 25 28 29 31 33 34 34 37 42 45 43 42 41 37 35 35 34 33 31 29 29 28 28 29 29 27 26 27 27 27 25 23 22 21 20 20 19 17 16 16 15 15 15 14 13 12 12 11 10 10 10 8 8
2 2 3 2 1 1 1 2 3 3 7 11 5 5 4 2 0 3 3 2 1 4 8 9 11 15 17 17 17 16 16 19 22 25 27 29 32 33 34 35 38 43 45 43 42 41 37 34 35 35 33 31 30 29 28 28 29 29 27 27 28 27 26 25 23 21 20 18 18 17 16 15 13 13 13 13 12 10 9 9 8 7 8 8 8 8
3 2 3 2 1 3 2 3 3 2 3 8 8 4 2 2 3 1 0 0 1 3 7 8 10 14 17 18 17 17 17 20 23 24 25 28 31 34 35 37 41 45 46 44 43 41 37 35 36 36 34 33 31 29 28 29 29 28 28 28 28 26 25 24 22 20 19 17 17 16 14 13 12 11 11 11 9 7 7 7 6 6 7 6 6 7
3 4 4 3 3 3 0 2 2 1 2 6 10 8 4 4 5 3 3 3 3 5 7 8 10 14 16 17 17 17 18 21 23 24 26 28 30 34 36 38 44 46 46 45 44 41 37 36 37 37 35 34 32 30 29 29 28 27 28 28 27 25 24 23 21 19 18 17 16 15 13 12 12 11 9 8 8 6 5 5 5 5 5 5 6 5
3 3 2 2 3 4 3 2 3 3 4 7 11 11 8 6 5 4 3 3 4 6 8 9 11 13 15 16 17 18 19 21 22 24 26 27 29 32 35 39 45 47 46 47 45 41 38 38 38 38 37 36 34 31 31 29 27 27 28 28 27 25 24 22 20 19 18 16 15 14 12 11 10 10 8 7 7 6 5 5 5 5 3 4 6 6
3 3 2 3 5 5 2 2 2 3 2 4 7 11 12 9 7 6 5 5 5 7 9 10 11 12 13 15 17 19 20 20 21 23 25 26 29 32 34 39 45 47 49 49 46 41 39 40 40 38 38 37 34 31 30 28 27 28 29 29 27 25 23 22 20 18 17 16 14 13 12 11 10 9 8 7 7 6 5 4 5 6 4 2 4 5
3 2 1 3 3 1 4 5 2 4 2 4 3 6 11 12 10 8 8 7 7 8 9 10 12 13 14 15 17 19 20 20 21 22 22 23 26 29 33 37 43 48 52 52 49 45 44 42 40 38 38 38 37 34 32 29 27 29 30 28 26 24 23 22 20 18 16 15 14 13 13 11 10 9 9 8 7 6 5 3 2 2 2 2 3 3
Wind_Direction
187 189 198 202 198 194 194 200 198 170 197 186 183 197 196 185 166 125 129 152 193 194 184 176 143 129 134 122 124 143 131 108 118 137 138 130 121 113 110 106 77 44 57 104 125 137 142 160 174 168 150 141 141 140 139 139 135 133 131 130 132 127 123 125 126 126 125 120 117 122 120 105 89 48 36 32 29 28 25 23 26 30 32 31 26 25
190 205 204 201 200 193 193 200 194 167 173 190 190 191 196 189 146 123 139 153 196 202 179 158 132 118 104 104 117 145 144 123 136 160 153 136 128 124 123 123 119 81 82 115 131 157 167 135 158 164 152 145 140 133 128 127 125 125 124 125 127 124 126 128 127 128 127 126 123 122 127 137 119 46 44 34 23 26 27 26 33 43 53 55 52 50
196 212 205 199 201 193 187 191 189 180 184 197 200 195 195 170 129 121 140 153 183 203 165 143 121 106 89 92 93 133 155 138 143 168 161 146 137 136 138 135 138 138 138 141 133 145 166 176 175 174 165 155 138 126 122 122 120 121 122 124 125 125 130 130 125 123 117 117 118 99 30 26 29 30 34 30 24 29 28 21 19 19 33 41 33 29
195 210 201 192 190 182 176 182 188 191 199 204 200 203 189 157 152 155 148 153 169 180 154 134 113 110 98 95 86 101 139 135 139 159 155 156 154 146 147 146 144 144 143 150 162 154 149 183 205 197 166 146 133 124 124 126 121 121 123 124 125 125 126 123 118 120 109 83 55 29 29 30 27 27 28 32 32 21 12 349 332 325 331 349 347 343
198 200 184 176 176 178 177 182 191 194 196 200 204 214 182 166 183 168 145 151 151 151 149 136 125 141 145 134 114 106 137 142 145 145 144 158 162 150 146 149 156 157 148 145 158 163 164 188 208 197 156 143 137 130 129 132 127 126 127 124 125 122 119 112 101 99 64 24 23 25 30 21 12 21 22 6 340 325 323 318 313 315 325 328 324 321
199 177 167 175 182 187 187 186 193 194 188 190 203 231 172 165 171 146 146 156 153 159 166 167 175 169 177 181 156 142 152 154 154 153 152 156 157 155 152 150 157 160 150 147 154 161 170 181 182 168 157 156 149 138 131 130 126 123 121 117 117 116 117 113 96 77 51 40 36 32 31 10 1 14 347 328 320 316 318 318 316 319 320 313 307 306
181 162 175 188 187 189 193 192 193 194 197 187 182 185 138 155 160 155 163 173 179 180 178 196 214 173 177 196 179 168 163 162 165 161 159 160 159 159 159 155 157 160 152 152 159 161 162 164 160 158 160 155 143 134 130 126 121 114 113 112 112 118 125 110 86 69 57 62 66 50 15 348 343 325 316 316 315 314 314 316 314 308 304 299 296 297
160 165 183 187 185 190 195 195 189 194 207 169 158 163 153 158 165 171 181 194 198 174 171 204 224 194 187 191 177 171 169 172 174 166 162 170 169 161 161 161 163 167 156 149 150 153 155 155 155 163 163 149 135 129 126 123 118 110 113 120 120 125 118 86 69 57 42 26 23 3 332 313 308 310 310 309 309 309 308 307 303 298 296 294 294 298
157 173 180 182 188 193 196 192 179 191 207 128 145 168 170 167 172 182 195 202 190 172 180 199 211 214 196 171 168 175 184 187 182 175 172 176 175 164 164 165 165 167 156 147 150 159 168 169 172 184 176 155 140 131 126 124 124 121 122 125 126 129 100 56 33 8 332 323 332 347 350 323 316 319 319 315 314 314 309 304 302 301 302 302 305 311
168 183 180 183 194 193 194 189 173 190 200 124 147 172 168 170 173 187 206 197 184 197 205 193 198 220 200 164 175 186 196 198 188 182 177 176 177 172 169 165 164 163 149 145 157 171 180 177 178 181 168 150 138 132 130 131 133 134 132 129 134 128 28 9 357 348 333 328 327 332 358 12 357 7 1 353 1 352 337 331 335 334 333 337 345 354
157 176 182 191 204 195 185 176 173 190 187 138 157 171 165 174 171 185 210 188 190 215 212 192 197 219 213 179 185 195 201 195 187 183 178 176 178 177 174 170 168 161 146 148 164 174 172 166 168 168 155 145 141 138 138 135 130 129 124 102 44 12 10 359 352 347 340 335 327 324 328 330 344 15 28 31 51 48 48 61 49 28 23 27 31 32
154 171 182 190 203 190 170 166 175 187 181 163 177 179 172 176 171 184 190 184 209 224 206 188 194 219 228 199 188 196 199 190 185 185 181 179 178 178 176 173 172 166 153 153 162 166 162 155 157 157 151 147 144 143 143 134 123 114 97 54 21 20 18 6 359 349 338 331 324 321 320 314 319 346 35 32 53 77 75 81 80 65 57 57 54 52
167 176 173 173 192 189 175 166 170 181 186 189 190 183 182 180 180 195 189 193 214 211 178 180 188 214 231 191 183 192 193 190 189 187 183 180 178 177 174 171 171 168 161 157 157 158 157 154 154 153 152 150 145 143 139 128 117 104 87 54 26 31 31 10 355 344 332 325 322 318 311 307 312 331 12 64 115 100 88 93 96 86 74 68 61 56
166 172 174 176 186 195 194 182 174 182 188 195 193 187 194 186 183 199 192 195 205 155 135 179 188 208 210 149 167 189 187 188 189 183 180 180 179 175 172 168 165 165 162 158 159 158 156 157 156 153 153 153 150 145 137 126 113 98 90 61 17 23 37 9 342 329 319 314 313 306 300 303 317 7 77 109 111 103 98 99 95 85 76 68 60 54
169 173 182 185 176 185 200 198 181 178 184 196 199 196 205 200 190 202 198 199 198 157 142 172 184 207 199 139 84 175 168 178 186 173 163 170 175 171 168 165 163 165 163 161 162 160 158 159 156 153 153 153 152 146 138 129 116 104 95 65 13 5 10 347 328 316 306 299 296 289 284 276 131 109 105 107 104 99 96 92 86 82 77 69 62 56
180 170 167 181 179 176 193 203 186 180 185 195 201 205 212 214 201 189 195 185 174 158 154 174 188 196 162 121 108 163 154 172 178 160 151 162 172 169 166 166 167 167 165 165 165 160 160 159 156 156 153 151 150 143 137 131 122 114 92 61 11 351 341 335 332 328 324 321 81 136 129 123 122 113 109 107 100 96 93 88 84 82 77 72 67 61
185 155 153 169 181 181 190 198 190 191 186 177 200 208 200 214 209 161 112 68 125 181 174 177 186 150 146 166 161 168 172 175 176 164 161 169 173 172 170 169 171 171 168 168 167 162 160 158 158 159 156 151 147 138 135 129 122 115 91 45 359 358 11 42 65 78 91 102 105 106 110 112 112 107 104 101 94 92 91 87 84 80 77 75 71 66
177 139 155 169 174 185 191 189 193 209 208 179 194 192 157 166 242 197 180 149 182 211 181 177 195 181 182 182 154 167 181 181 184 178 171 171 175 179 178 173 172 171 168 167 165 161 159 157 157 157 152 150 145 137 132 126 118 113 94 34 351 26 81 85 87 95 97 102 103 102 104 105 104 100 97 95 91 89 88 86 84 81 79 77 73 68
189 139 158 180 175 174 186 189 197 211 219 226 205 184 173 196 207 206 206 182 194 212 193 190 202 196 200 188 163 179 187 183 185 183 176 175 179 182 179 175 172 169 168 167 164 161 159 157 155 153 149 147 144 137 132 127 123 122 101 25 354 59 95 94 94 98 96 100 104 103 98 95 94 93 93 95 93 92 89 86 86 84 83 80 74 68
201 166 155 183 178 165 179 198 200 191 192 232 221 189 195 217 211 205 209 199 200 208 200 191 195 206 211 189 175 185 188 183 182 183 183 181 182 182 176 172 171 170 169 167 164 162 160 157 153 151 149 146 143 141 137 134 133 130 99 15 36 91 100 100 99 97 95 97 102 103 98 95 94 94 97 97 96 95 92 90 90 87 83 79 74 69
190 199 158 173 174 172 184 200 203 190 181 202 211 192 195 206 219 211 205 209 220 216 204 195 201 206 195 177 187 189 187 183 181 183 185 183 183 181 175 171 171 169 168 165 163 161 158 155 153 150 148 146 144 143 141 138 130 119 83 25 79 105 105 103 100 97 96 94 97 101 100 100 100 101 102 101 99 98 95 93 91 86 82 80 76 73
192 200 163 163 174 188 194 195 203 202 189 194 202 198 197 195 197 205 198 199 220 231 217 210 214 186 117 52 205 190 184 183 182 181 181 181 181 178 174 173 170 167 166 163 160 159 156 155 153 151 152 150 147 146 143 138 131 117 99 82 102 112 109 106 103 100 97 96 99 102 102 103 104 105 105 103 102 99 96 94 91 88 86 82 79 75
203 201 170 169 183 192 184 187 206 214 201 200 205 206 203 199 200 207 202 190 205 224 224 224 224 156 77 11 268 188 179 176 179 181 180 179 178 176 174 171 167 164 164 162 160 158 157 156 155 153 154 152 149 150 146 143 146 128 112 110 114 116 113 109 107 103 99 101 104 104 105 107 108 108 107 104 103 101 99 96 93 91 87 83 79 74
174 202 176 166 178 186 167 174 208 224 213 205 207 209 208 203 202 215 226 200 198 208 203 213 223 162 86 18 227 188 172 168 178 184 180 175 173 174 172 166 163 162 161 162 161 157 155 155 156 155 155 154 152 151 148 149 149 131 123 132 125 119 116 113 111 107 105 107 107 107 109 111 112 111 109 107 105 102 100 97 94 90 86 82 78 72
177 199 183 168 174 184 185 188 198 209 214 212 209 208 210 206 200 205 223 201 205 211 205 216 223 164 97 149 191 185 172 168 177 180 175 173 170 171 169 162 161 161 160 164 163 158 155 157 158 158 157 155 152 151 151 151 148 137 146 152 136 126 124 119 115 114 114 112 111 113 115 115 114 113 110 108 105 102 99 96 93 89 85 80 75 70
180 201 192 185 184 187 196 201 195 193 201 212 212 209 210 209 201 196 201 210 222 217 205 219 223 130 109 171 179 178 176 171 173 174 173 173 169 167 165 161 162 161 161 164 162 159 159 160 161 161 157 152 148 150 152 150 149 158 164 152 138 132 128 123 120 121 120 119 119 121 120 118 116 113 110 108 105 102 100 96 92 87 83 78 73 69
188 205 203 214 217 206 208 199 176 179 189 201 208 207 209 209 206 204 210 218 222 216 212 221 217 152 145 172 177 174 177 177 174 175 175 172 167 164 163 162 164 165 166 166 163 161 162 163 162 160 152 146 148 153 153 148 153 170 166 146 137 136 133 129 126 126 125 126 127 126 123 120 118 115 112 109 106 103 99 95 91 86 82 77 73 68
195 195 202 225 258 56 141 135 153 184 196 198 200 203 205 207 208 210 215 221 214 211 216 201 198 200 173 171 180 179 179 183 182 181 179 172 165 164 162 163 165 167 169 168 165 163 164 163 161 154 146 146 154 158 152 147 155 166 159 147 142 140 137 132 130 130 129 130 130 127 125 122 118 115 113 110 106 103 98 94 90 86 82 77 74 70
211 195 192 211 193 61 52 83 139 194 205 206 205 205 204 205 208 210 214 219 213 217 226 175 182 215 199 176 185 186 182 184 183 182 179 170 164 163 163 164 165 166 168 169 168 167 165 164 159 151 146 152 161 161 155 153 160 161 155 150 145 141 138 134 133 133 132 131 130 127 125 121 118 114 111 107 104 100 97 94 89 86 82 78 74 70
221 187 172 202 205 143 84 82 123 191 202 213 215 211 208 206 208 210 213 217 215 221 237 197 190 214 209 178 184 181 175 176 175 178 178 172 168 167 165 165 166 167 169 169 169 169 167 164 157 150 150 159 163 161 158 159 161 159 155 152 147 141 139 137 137 136 134 132 129 126 123 119 115 112 109 106 103 99 96 93 89 86 82 79 76 72
214 167 154 198 211 178 151 126 185 198 199 214 218 216 215 210 207 209 211 213 213 215 223 222 215 214 161 135 158 159 163 170 174 181 181 176 173 172 169 168 169 170 171 170 169 170 168 163 157 155 158 163 165 162 160 161 161 160 157 153 148 144 141 141 142 140 135 131 128 125 122 118 115 113 109 106 102 99 95 92 89 86 83 80 76 72
202 187 162 199 219 193 174 186 210 227 247 234 223 213 212 213 211 208 203 198 205 210 206 210 224 218 151 136 150 158 166 171 176 183 183 179 179 178 172 169 172 172 170 169 169 170 167 162 161 162 163 165 166 164 163 164 163 160 158 154 150 147 144 144 145 141 135 132 129 126 123 119 116 113 109 105 101 98 95 92 91 88 84 80 76 72
194 199 183 196 215 196 173 183 206 227 242 236 227 213 209 210 205 196 190 193 205 213 205 206 226 214 155 149 157 164 171 177 182 186 186 183 183 182 174 169 170 171 169 169 170 170 167 166 167 168 167 167 166 165 168 169 164 160 160 158 155 151 148 147 147 142 136 133 131 128 124 120 117 112 108 105 102 99 97 94 93 89 84 80 76 73
189 201 198 191 211 198 165 159 206 228 231 220 88 3 271 207 197 195 196 198 204 211 211 218 217 167 151 161 171 173 179 185 186 186 187 185 184 182 176 169 170 172 173 173 173 172 170 168 168 170 170 168 166 166 169 169 167 166 164 161 158 153 149 149 147 142 138 136 133 129 125 120 116 112 108 106 103 102 100 97 93 89 84 80 77 73
182 200 200 188 212 201 159 170 216 227 225 106 78 26 15 10 210 208 209 203 202 203 203 205 183 159 161 174 177 176 179 180 179 183 188 190 188 183 174 170 172 174 175 172 169 170 173 171 170 170 169 167 167 168 168 169 172 173 166 160 157 153 150 150 148 143 141 138 134 129 125 121 118 114 110 109 106 104 101 96 91 87 83 80 77 72
181 192 192 190 206 191 174 202 218 226 106 111 117 148 138 120 176 190 219 213 203 203 204 202 190 167 165 166 162 163 165 164 170 183 190 192 191 185 175 171 173 175 177 176 175 176 177 176 174 171 167 168 171 171 170 173 175 169 162 159 156 153 151 150 148 146 144 139 134 130 126 123 120 116 113 111 107 103 99 94 90 86 82 79 76 72
191 190 186 194 205 205 215 213 208 306 176 183 186 180 181 181 173 185 225 217 196 196 201 197 180 159 156 150 146 147 148 153 168 190 194 194 193 187 179 174 177 183 183 182 181 181 179 177 177 175 173 174 174 172 172 175 172 164 160 158 155 153 152 150 149 148 144 139 134 131 128 126 123 120 116 111 107 103 97 92 88 85 82 79 75 72
206 204 196 196 198 213 234 223 209 229 231 211 172 162 170 176 177 192 241 220 181 183 191 192 176 160 154 148 147 145 144 156 184 196 192 192 191 188 183 178 182 185 179 174 175 176 176 178 180 180 179 177 173 172 176 175 168 162 159 157 155 152 151 150 149 147 143 139 136 133 131 129 126 122 117 112 107 101 95 91 87 84 82 79 75 72
216 222 212 207 197 199 227 234 222 228 233 188 134 139 156 167 166 185 225 216 175 175 183 185 171 162 160 155 154 152 156 183 214 196 185 184 185 186 182 176 176 175 169 171 177 177 176 180 180 178 177 175 172 176 179 173 166 162 159 157 155 152 150 150 149 147 144 141 138 136 133 132 129 124 119 112 107 101 95 91 87 85 83 79 75 72
207 215 216 219 209 198 214 233 232 228 188 118 118 131 151 162 167 197 218 204 163 171 179 179 172 169 165 160 160 165 180 204 242 177 173 175 179 181 177 171 168 165 165 174 181 179 177 179 178 175 174 175 175 177 175 168 163 160 157 155 154 151 151 151 149 148 146 142 140 138 136 134 131 125 120 113 107 102 97 93 89 86 84 81 78 75
194 201 211 220 218 204 208 228 237 219 116 107 131 140 144 156 194 221 221 137 136 169 177 178 175 170 167 167 171 181 196 232 66 151 161 168 175 177 172 167 165 165 170 177 178 177 177 178 176 173 172 174 175 172 167 163 160 159 157 155 153 152 152 152 150 148 145 141 139 138 136 135 132 127 121 113 108 103 98 94 91 87 85 83 80 77
184 188 201 217 221 213 212 226 234 222 126 122 136 139 149 179 209 217 139 53 111 166 169 175 176 171 171 175 178 178 165 124 133 151 159 166 171 169 166 165 166 170 178 181 179 177 176 173 170 168 168 173 173 168 163 161 160 158 157 155 154 154 154 152 150 147 143 140 139 138 137 136 133 127 121 114 108 103 98 95 90 87 88 85 80 76
178 183 194 202 209 215 214 217 230 241 157 149 145 142 192 219 287 22 61 63 118 163 165 171 176 174 175 177 176 164 136 134 144 152 157 163 165 164 166 167 165 168 176 179 177 175 172 167 165 167 169 172 170 164 162 162 160 159 158 155 155 156 155 153 150 145 143 142 141 140 139 136 132 127 121 115 110 104 99 95 90 88 90 87 80 74
177 195 208 193 188 213 221 207 222 359 146 160 156 136 194 175 27 360 353 73 107 163 170 174 178 179 180 180 176 164 150 148 152 155 159 162 163 164 166 165 163 168 176 177 175 173 169 164 164 168 169 168 165 163 163 162 161 159 158 156 157 157 155 152 149 146 145 144 142 140 138 135 131 125 121 116 110 105 100 96 92 89 89 89 84 77
115 22 293 227 187 220 258 179 69 61 148 165 150 47 92 147 36 4 5 47 96 169 178 181 181 181 183 182 176 167 161 159 158 159 163 165 165 165 164 163 167 176 178 175 173 173 169 165 166 167 166 166 165 163 163 164 163 160 158 158 159 158 155 152 149 148 146 144 142 140 138 135 130 126 123 118 111 107 102 97 95 92 89 88 86 79
61 45 308 294 173 207 271 129 99 99 160 172 155 66 77 159 88 24 18 19 48 178 186 190 185 182 184 183 178 173 168 163 161 162 166 167 166 166 164 164 173 180 177 171 173 173 168 165 167 167 165 165 165 163 163 165 165 161 159 161 161 158 156 153 151 149 148 147 145 142 139 138 135 131 127 121 115 113 110 103 102 99 89 86 83 79
127 179 250 280 174 200 207 141 116 110 162 183 186 158 104 158 173 123 12 286 258 200 193 192 187 182 182 183 179 175 170 165 163 164 166 166 166 166 165 168 176 179 175 173 174 172 166 165 167 167 167 166 165 164 164 165 165 162 162 162 160 158 157 155 153 152 152 151 149 145 145 146 143 139 132 125 124 126 121 113 109 98 88 86 81 75
139 188 225 235 209 211 223 76 98 141 179 193 197 191 170 165 167 154 143 156 179 192 189 192 189 182 181 184 181 175 169 168 167 167 168 169 169 168 168 172 177 177 174 175 175 170 167 168 169 168 168 167 165 165 166 166 166 164 163 163 161 159 159 158 156 156 155 154 152 151 153 153 146 142 141 140 141 142 133 124 115 100 93 99 98 91
124 185 203 217 220 231 243 194 183 210 206 194 197 198 186 167 162 170 169 160 167 180 188 196 195 189 187 185 179 173 171 171 172 172 170 171 171 170 170 173 176 175 174 176 175 171 169 170 170 170 170 168 167 167 167 167 168 167 165 165 163 162 162 161 161 160 158 158 159 158 160 160 152 150 159 162 157 157 158 150 137 128 113 91 92 97
191 212 182 209 233 241 242 135 172 251 230 157 179 198 196 186 183 195 205 199 186 188 192 189 184 186 188 184 179 177 175 173 175 175 173 173 174 173 172 173 174 175 177 178 175 171 171 173 173 173 173 170 169 168 167 168 171 171 169 168 166 166 167 165 164 164 164 165 166 166 167 170 168 168 173 175 171 170 172 158 136 137 143 107 76 78
226 245 194 245 258 265 49 40 344 279 324 69 107 186 195 197 200 200 200 201 195 193 193 187 180 179 180 182 184 183 178 175 175 173 172 172 172 171 171 172 173 177 180 180 176 174 177 179 177 176 175 172 170 170 170 171 173 174 173 171 169 170 170 169 168 170 171 173 175 176 176 177 180 182 182 183 185 184 184 182 143 109 110 95 73 58
Height
1486 1487 1485 1479 1476 1477 1478 1478 1478 1480 1480 1480 1482 1483 1482 1484 1488 1490 1492 1492 1490 1492 1495 1494 1502 1513 1517 1518 1519 1520 1523 1525 1529 1529 1529 1529 1531 1533 1535 1537 1541 1542 1542 1541 1542 1544 1545 1547 1547 1548 1550 1551 1552 1552 1552 1553 1554 1555 1557 1558 1560 1561 1563 1565 1566 1567 1567 1568 1569 1569 1570 1571 1571 1571 1571 1571 1572 1572 1572 1572 1572 1572 1572 1572 1572 1572
1485 1482 1477 1473 1473 1474 1478 1478 1479 1483 1484 1482 1481 1483 1482 1482 1488 1492 1493 1494 1491 1493 1498 1497 1505 1518 1521 1521 1521 1521 1523 1525 1526 1528 1528 1529 1531 1534 1534 1535 1539 1542 1543 1543 1544 1546 1547 1550 1553 1553 1554 1555 1554 1553 1553 1553 1554 1556 1557 1559 1560 1562 1563 1565 1566 1567 1567 1568 1569 1569 1570 1570 1571 1571 1571 1571 1571 1572 1572 1572 1572 1571 1571 1572 1571 1571
1483 1476 1470 1471 1472 1474 1478 1479 1482 1485 1486 1485 1482 1483 1484 1482 1489 1495 1494 1493 1492 1494 1500 1502 1512 1524 1524 1523 1524 1522 1523 1524 1526 1526 1527 1530 1532 1533 1534 1535 1538 1540 1542 1543 1545 1547 1549 1553 1556 1556 1556 1555 1554 1554 1554 1554 1555 1556 1558 1559 1561 1562 1564 1565 1566 1567 1567 1568 1569 1569 1569 1570 1570 1570 1571 1571 1571 1571 1571 1571 1571 1571 1571 1571 1571 1571
1479 1472 1468 1470 1472 1475 1479 1481 1484 1486 1486 1485 1482 1482 1483 1483 1489 1496 1497 1496 1494 1494 1499 1507 1518 1526 1526 1525 1525 1525 1525 1525 1527 1528 1528 1531 1532 1532 1533 1535 1537 1538 1539 1542 1545 1547 1550 1555 1557 1556 1554 1553 1553 1553 1554 1555 1556 1557 1559 1560 1561 1563 1564 1565 1566 1567 1567 1568 1568 1569 1569 1569 1570 1570 1570 1570 1571 1571 1571 1571 1571 1571 1570 1570 1570 1570
1470 1467 1467 1472 1475 1476 1480 1482 1483 1485 1486 1485 1482 1479 1480 1483 1484 1488 1494 1496 1495 1498 1500 1507 1521 1527 1526 1527 1527 1526 1526 1526 1527 1529 1530 1531 1532 1533 1534 1536 1538 1538 1538 1540 1545 1548 1551 1555 1557 1555 1553 1552 1552 1553 1554 1555 1556 1558 1559 1561 1562 1563 1564 1565 1566 1567 1567 1567 1568 1568 1569 1569 1569 1570 1570 1570 1570 1570 1570 1570 1570 1570 1569 1569 1569 1569
1466 1467 1470 1474 1476 1476 1479 1481 1482 1483 1485 1485 1484 1479 1478 1482 1484 1486 1492 1494 1500 1508 1503 1502 1518 1526 1522 1522 1526 1525 1525 1526 1527 1529 1530 1531 1532 1534 1536 1537 1538 1539 1537 1538 1544 1547 1549 1552 1554 1554 1553 1553 1552 1553 1554 1555 1557 1558 1560 1561 1562 1563 1564 1565 1566 1566 1567 1568 1568 1569 1569 1570 1570 1570 1570 1570 1570 1569 1569 1569 1569 1568 1568 1568 1568 1567
1464 1469 1472 1473 1474 1476 1478 1480 1480 1480 1482 1485 1485 1482 1481 1482 1485 1488 1490 1491 1500 1508 1502 1497 1509 1521 1521 1519 1521 1523 1525 1526 1527 1528 1529 1530 1532 1534 1536 1538 1539 1540 1537 1537 1543 1547 1549 1551 1553 1554 1554 1555 1554 1554 1555 1556 1558 1559 1561 1562 1563 1563 1564 1565 1565 1566 1567 1568 1568 1569 1569 1570 1570 1569 1569 1569 1568 1568 1568 1567 1567 1567 1567 1567 1566 1566
1463 1469 1471 1471 1473 1475 1477 1478 1477 1478 1480 1482 1480 1482 1486 1484 1485 1488 1487 1489 1491 1496 1502 1499 1499 1512 1519 1515 1516 1522 1526 1526 1526 1527 1528 1529 1531 1533 1536 1537 1539 1540 1538 1538 1543 1547 1550 1552 1553 1555 1556 1558 1558 1557 1557 1558 1559 1561 1562 1563 1564 1564 1564 1565 1565 1566 1567 1568 1568 1568 1568 1568 1569 1568 1568 1568 1567 1567 1566 1566 1566 1566 1566 1565 1564 1564
1464 1468 1469 1470 1473 1474 1474 1473 1475 1478 1479 1479 1479 1482 1485 1484 1486 1485 1485 1486 1487 1498 1510 1503 1496 1507 1514 1510 1514 1521 1524 1526 1525 1525 1527 1528 1530 1533 1535 1537 1538 1539 1539 1539 1542 1546 1548 1550 1552 1554 1556 1559 1559 1559 1559 1559 1560 1562 1562 1563 1564 1564 1565 1565 1565 1566 1566 1567 1567 1568 1567 1567 1567 1567 1567 1567 1566 1566 1565 1565 1565 1564 1564 1563 1563 1562
1465 1466 1468 1470 1471 1471 1470 1471 1474 1478 1478 1478 1481 1482 1483 1485 1485 1485 1485 1487 1493 1505 1510 1501 1496 1504 1509 1508 1512 1519 1520 1521 1521 1521 1524 1527 1530 1532 1534 1536 1537 1539 1539 1539 1542 1545 1547 1549 1550 1552 1554 1557 1559 1559 1560 1561 1561 1562 1563 1564 1564 1564 1564 1564 1565 1565 1565 1565 1565 1566 1566 1566 1566 1566 1566 1566 1566 1565 1565 1564 1564 1563 1563 1562 1561 1561
1463 1466 1468 1469 1469 1468 1469 1472 1475 1477 1477 1479 1482 1483 1486 1487 1486 1488 1487 1487 1502 1509 1499 1493 1493 1496 1505 1508 1506 1509 1510 1509 1513 1517 1521 1525 1528 1531 1533 1535 1537 1538 1538 1539 1542 1545 1547 1550 1551 1552 1554 1556 1558 1559 1560 1561 1562 1563 1563 1564 1564 1564 1564 1564 1564 1564 1564 1564 1564 1564 1564 1565 1565 1565 1565 1565 1565 1565 1564 1564 1563 1563 1562 1561 1561 1560
1463 1467 1467 1467 1468 1467 1470 1473 1475 1476 1477 1480 1481 1481 1488 1492 1492 1495 1494 1495 1510 1508 1488 1485 1492 1494 1502 1502 1497 1498 1499 1500 1507 1512 1516 1522 1526 1529 1532 1534 1536 1537 1538 1539 1542 1545 1547 1550 1552 1552 1554 1556 1557 1559 1560 1561 1562 1562 1563 1563 1563 1563 1563 1563 1563 1564 1564 1564 1563 1563 1563 1563 1563 1563 1564 1564 1564 1564 1563 1563 1563 1562 1562 1561 1561 1560
1463 1464 1465 1468 1470 1468 1470 1474 1477 1478 1478 1479 1478 1480 1491 1497 1502 1505 1503 1504 1507 1499 1486 1482 1491 1497 1495 1491 1490 1493 1496 1498 1502 1506 1513 1520 1524 1528 1530 1532 1535 1537 1538 1540 1543 1545 1548 1550 1552 1552 1554 1555 1556 1558 1559 1560 1561 1562 1562 1562 1562 1562 1562 1562 1563 1563 1563 1563 1562 1562 1562 1562 1562 1562 1562 1562 1562 1562 1562 1562 1562 1562 1561 1561 1560 1560
1464 1465 1465 1468 1470 1468 1467 1469 1475 1478 1477 1477 1475 1479 1487 1492 1507 1513 1505 1503 1501 1497 1492 1486 1492 1500 1492 1489 1491 1491 1494 1498 1500 1505 1512 1518 1523 1527 1529 1531 1534 1536 1538 1540 1543 1545 1548 1550 1552 1552 1553 1554 1555 1557 1558 1560 1561 1561 1561 1561 1561 1562 1562 1562 1562 1562 1562 1562 1561 1561 1561 1561 1561 1561 1561 1561 1561 1561 1561 1562 1561 1561 1561 1560 1560 1559
1464 1470 1465 1464 1465 1466 1465 1463 1467 1471 1473 1474 1469 1472 1478 1479 1493 1505 1497 1495 1495 1495 1497 1495 1499 1498 1491 1495 1496 1492 1495 1498 1500 1506 1512 1519 1523 1526 1529 1531 1533 1536 1537 1540 1543 1545 1547 1549 1551 1552 1553 1554 1555 1556 1558 1559 1560 1561 1561 1561 1561 1561 1561 1561 1561 1561 1561 1561 1560 1560 1560 1560 1560 1560 1561 1561 1560 1561 1561 1561 1561 1561 1561 1560 1560 1559
1459 1462 1456 1459 1461 1461 1465 1462 1461 1467 1473 1473 1467 1471 1476 1468 1473 1488 1491 1486 1487 1496 1502 1500 1498 1492 1490 1499 1499 1496 1500 1499 1501 1507 1512 1520 1524 1526 1529 1530 1532 1535 1537 1540 1542 1544 1547 1549 1551 1552 1552 1553 1554 1556 1557 1559 1560 1560 1560 1560 1560 1561 1561 1561 1561 1560 1560 1560 1560 1559 1559 1559 1559 1560 1560 1560 1561 1561 1561 1561 1561 1561 1560 1560 1560 1560
1454 1456 1452 1459 1462 1460 1463 1462 1460 1465 1469 1471 1471 1471 1469 1462 1465 1483 1494 1489 1489 1500 1501 1495 1495 1493 1495 1499 1497 1498 1501 1499 1501 1506 1511 1518 1523 1525 1527 1528 1531 1534 1536 1539 1541 1543 1546 1548 1550 1551 1552 1553 1554 1556 1557 1558 1559 1560 1560 1560 1560 1560 1560 1560 1560 1560 1560 1560 1559 1559 1559 1559 1559 1559 1560 1560 1561 1561 1561 1561 1561 1561 1560 1560 1561 1560
1447 1457 1457 1458 1462 1461 1461 1463 1463 1461 1461 1467 1473 1469 1465 1469 1471 1476 1489 1496 1499 1501 1497 1492 1494 1495 1496 1497 1497 1499 1501 1500 1500 1503 1510 1517 1520 1522 1524 1526 1530 1532 1535 1539 1540 1543 1545 1546 1549 1550 1551 1552 1553 1555 1556 1557 1558 1559 1559 1559 1560 1560 1561 1560 1560 1560 1560 1559 1559 1559 1559 1559 1559 1559 1560 1560 1560 1561 1561 1561 1561 1561 1561 1561 1561 1561
1443 1457 1462 1455 1458 1461 1459 1464 1467 1462 1461 1465 1465 1462 1466 1480 1484 1478 1485 1496 1499 1500 1498 1493 1490 1489 1489 1490 1493 1496 1497 1497 1498 1501 1508 1514 1516 1519 1522 1525 1529 1531 1535 1538 1539 1542 1544 1546 1548 1550 1551 1552 1553 1554 1555 1556 1558 1558 1559 1559 1560 1560 1561 1561 1560 1560 1560 1559 1559 1559 1559 1559 1559 1560 1560 1560 1561 1561 1561 1561 1562 1562 1562 1562 1562 1562
1441 1453 1463 1456 1453 1459 1461 1462 1464 1463 1465 1466 1462 1460 1464 1471 1475 1475 1478 1482 1488 1494 1495 1496 1497 1491 1481 1478 1484 1489 1489 1491 1495 1498 1504 1510 1514 1517 1520 1523 1527 1530 1533 1536 1538 1541 1543 1545 1547 1549 1551 1552 1553 1554 1555 1556 1557 1557 1558 1559 1560 1561 1561 1561 1561 1560 1560 1560 1559 1559 1559 1560 1560 1561 1561 1561 1562 1562 1562 1562 1563 1563 1563 1563 1563 1562
1442 1447 1459 1457 1453 1458 1460 1457 1456 1457 1463 1467 1465 1465 1467 1468 1468 1470 1471 1470 1476 1484 1487 1497 1503 1489 1473 1472 1478 1481 1484 1487 1490 1495 1500 1507 1512 1516 1518 1522 1525 1528 1532 1534 1537 1540 1542 1545 1546 1548 1551 1551 1553 1554 1554 1555 1556 1557 1558 1559 1560 1561 1561 1561 1561 1561 1560 1560 1560 1560 1560 1561 1561 1562 1562 1562 1563 1563 1563 1563 1563 1564 1564 1563 1563 1563
1444 1445 1452 1458 1459 1459 1455 1451 1450 1451 1455 1461 1463 1463 1464 1467 1470 1476 1479 1472 1470 1474 1476 1486 1492 1480 1474 1478 1476 1476 1482 1485 1488 1494 1499 1505 1511 1514 1518 1521 1523 1527 1531 1533 1536 1539 1541 1544 1545 1548 1550 1552 1553 1553 1554 1555 1556 1557 1559 1559 1561 1561 1561 1561 1561 1561 1561 1560 1560 1561 1561 1562 1562 1563 1563 1563 1564 1564 1564 1564 1564 1564 1565 1564 1564 1564
1443 1442 1448 1456 1457 1453 1450 1449 1450 1450 1451 1454 1458 1458 1457 1462 1467 1475 1481 1476 1474 1473 1469 1475 1481 1479 1481 1483 1479 1478 1482 1485 1491 1496 1500 1505 1511 1514 1517 1520 1523 1526 1530 1533 1535 1538 1540 1543 1545 1547 1549 1551 1552 1552 1553 1554 1555 1557 1558 1559 1561 1561 1561 1561 1561 1561 1561 1561 1561 1562 1562 1563 1564 1564 1564 1564 1565 1565 1565 1565 1565 1565 1565 1565 1565 1564
1444 1442 1447 1454 1452 1448 1449 1451 1451 1452 1452 1454 1455 1453 1454 1458 1460 1464 1466 1466 1472 1475 1474 1481 1486 1483 1484 1485 1483 1483 1483 1487 1493 1496 1501 1506 1510 1514 1516 1519 1523 1525 1529 1532 1534 1536 1539 1542 1544 1546 1549 1550 1550 1551 1552 1554 1556 1557 1558 1559 1560 1560 1561 1561 1561 1561 1562 1562 1562 1563 1563 1564 1565 1565 1565 1566 1566 1566 1566 1566 1566 1566 1566 1565 1565 1564
1446 1444 1445 1453 1458 1459 1459 1459 1457 1456 1454 1453 1453 1452 1453 1454 1457 1462 1462 1465 1473 1472 1472 1483 1484 1480 1484 1486 1484 1484 1484 1488 1494 1497 1502 1506 1509 1513 1515 1517 1521 1524 1527 1530 1532 1534 1537 1541 1543 1546 1548 1548 1548 1549 1551 1554 1556 1556 1557 1559 1559 1560 1561 1561 1562 1562 1562 1563 1563 1564 1565 1565 1566 1566 1566 1566 1567 1567 1567 1566 1566 1566 1566 1566 1565 1565
1444 1442 1441 1450 1459 1464 1464 1460 1455 1454 1455 1454 1452 1452 1453 1453 1456 1463 1467 1473 1478 1471 1468 1475 1475 1478 1487 1487 1483 1484 1484 1488 1495 1499 1503 1506 1509 1511 1513 1516 1520 1522 1525 1528 1531 1534 1537 1540 1542 1545 1547 1546 1545 1548 1551 1553 1555 1556 1557 1558 1559 1560 1561 1561 1562 1563 1563 1564 1564 1565 1566 1566 1567 1567 1567 1567 1567 1567 1567 1567 1567 1567 1567 1566 1566 1565
1442 1442 1440 1442 1446 1448 1448 1446 1443 1446 1453 1456 1454 1454 1454 1454 1456 1461 1467 1471 1471 1469 1471 1469 1466 1476 1487 1486 1483 1483 1484 1488 1494 1499 1502 1505 1507 1509 1512 1515 1518 1521 1524 1526 1530 1534 1536 1539 1542 1544 1544 1543 1544 1548 1551 1553 1555 1555 1557 1558 1559 1560 1561 1561 1563 1563 1564 1565 1565 1566 1567 1567 1568 1568 1568 1568 1568 1568 1568 1568 1568 1567 1567 1567 1566 1566
1443 1445 1443 1441 1442 1440 1439 1441 1441 1444 1448 1451 1454 1455 1456 1456 1457 1461 1466 1465 1462 1470 1475 1466 1462 1472 1479 1480 1482 1481 1482 1486 1490 1495 1499 1501 1504 1508 1511 1514 1516 1519 1522 1525 1529 1532 1535 1538 1540 1541 1541 1542 1544 1547 1550 1553 1554 1555 1557 1558 1559 1560 1561 1562 1563 1564 1565 1565 1566 1567 1567 1568 1568 1569 1569 1569 1569 1569 1568 1568 1568 1568 1568 1567 1567 1567
1442 1445 1444 1443 1446 1445 1443 1445 1445 1444 1445 1446 1449 1452 1454 1456 1457 1460 1464 1461 1460 1468 1469 1462 1464 1468 1467 1472 1476 1475 1477 1482 1486 1492 1498 1500 1503 1506 1509 1511 1514 1518 1521 1525 1528 1531 1534 1537 1537 1538 1539 1542 1544 1547 1550 1552 1553 1555 1557 1558 1559 1560 1561 1562 1564 1565 1566 1566 1567 1568 1568 1569 1569 1569 1570 1569 1569 1569 1569 1569 1569 1568 1568 1568 1567 1567
1441 1443 1443 1444 1445 1446 1447 1448 1446 1446 1447 1446 1445 1447 1449 1452 1454 1457 1460 1458 1459 1464 1462 1460 1465 1465 1461 1465 1469 1472 1478 1482 1487 1494 1497 1499 1502 1504 1507 1510 1513 1517 1521 1523 1526 1529 1533 1535 1535 1536 1539 1542 1544 1547 1549 1552 1553 1555 1556 1557 1559 1560 1561 1563 1564 1565 1566 1567 1568 1568 1569 1569 1570 1570 1570 1570 1570 1570 1570 1569 1569 1569 1569 1568 1568 1568
1443 1443 1443 1444 1446 1448 1449 1450 1449 1448 1449 1449 1447 1445 1446 1449 1451 1454 1457 1457 1459 1463 1462 1463 1466 1464 1463 1465 1468 1474 1480 1482 1487 1492 1494 1497 1500 1502 1506 1509 1512 1517 1519 1522 1525 1529 1531 1533 1533 1535 1539 1542 1544 1547 1549 1551 1553 1555 1556 1557 1559 1560 1561 1563 1564 1565 1567 1567 1568 1569 1569 1570 1570 1570 1571 1571 1571 1570 1570 1570 1570 1569 1569 1569 1568 1568
1444 1445 1445 1446 1450 1449 1447 1451 1452 1450 1450 1452 1450 1449 1450 1451 1451 1452 1454 1456 1459 1462 1464 1467 1467 1463 1463 1467 1470 1475 1478 1481 1486 1490 1492 1496 1497 1500 1503 1506 1510 1514 1516 1520 1524 1527 1529 1530 1532 1535 1539 1542 1544 1547 1549 1551 1552 1554 1556 1557 1558 1560 1562 1563 1564 1565 1567 1567 1569 1569 1570 1570 1571 1571 1571 1571 1571 1571 1571 1571 1570 1570 1570 1569 1569 1568
1442 1445 1445 1448 1453 1450 1447 1450 1451 1452 1456 1455 1450 1449 1450 1450 1451 1453 1455 1457 1457 1457 1461 1466 1462 1456 1459 1465 1470 1474 1477 1479 1482 1484 1488 1491 1494 1497 1500 1502 1507 1511 1514 1518 1521 1523 1526 1529 1531 1535 1538 1541 1544 1546 1548 1550 1552 1554 1555 1557 1558 1559 1561 1563 1564 1565 1566 1568 1569 1569 1570 1571 1571 1571 1571 1571 1572 1571 1571 1571 1571 1571 1570 1569 1569 1569
1440 1443 1441 1444 1449 1449 1448 1449 1452 1457 1460 1455 1452 1452 1451 1449 1451 1453 1455 1456 1455 1454 1456 1458 1455 1453 1458 1462 1465 1468 1471 1473 1476 1481 1485 1488 1491 1495 1497 1500 1505 1509 1512 1516 1518 1521 1525 1528 1532 1535 1537 1541 1544 1546 1548 1550 1551 1553 1554 1556 1558 1559 1561 1563 1564 1565 1566 1568 1569 1569 1570 1571 1571 1572 1572 1572 1572 1572 1572 1572 1571 1571 1570 1570 1570 1569
1440 1441 1440 1441 1444 1446 1447 1452 1461 1463 1456 1452 1455 1456 1455 1453 1452 1451 1452 1453 1453 1454 1455 1457 1456 1456 1458 1459 1461 1465 1468 1472 1477 1482 1485 1487 1490 1492 1495 1498 1502 1506 1510 1514 1517 1520 1524 1527 1530 1534 1537 1541 1543 1545 1547 1549 1550 1552 1554 1556 1557 1559 1561 1562 1564 1565 1566 1567 1569 1570 1570 1571 1572 1572 1573 1573 1573 1573 1573 1572 1572 1571 1571 1571 1570 1570
1439 1441 1442 1441 1443 1447 1451 1456 1460 1458 1451 1453 1458 1457 1457 1457 1456 1456 1457 1454 1452 1453 1454 1455 1456 1457 1458 1461 1463 1467 1471 1475 1479 1482 1484 1486 1489 1491 1493 1495 1500 1504 1508 1511 1514 1518 1522 1525 1528 1532 1537 1540 1542 1544 1546 1548 1550 1552 1553 1555 1557 1559 1560 1562 1563 1565 1566 1567 1569 1570 1571 1572 1572 1573 1573 1573 1574 1573 1573 1573 1572 1572 1571 1571 1571 1570
1435 1438 1441 1445 1447 1449 1451 1450 1449 1451 1452 1453 1453 1450 1451 1451 1449 1451 1453 1448 1446 1449 1452 1453 1455 1457 1459 1462 1465 1468 1472 1475 1479 1480 1482 1485 1487 1490 1493 1495 1498 1502 1505 1509 1513 1516 1521 1524 1527 1531 1535 1538 1540 1543 1545 1547 1549 1551 1553 1555 1557 1558 1560 1562 1563 1564 1566 1567 1569 1570 1571 1572 1573 1573 1574 1574 1574 1574 1573 1573 1572 1572 1572 1572 1571 1571
1435 1435 1438 1445 1449 1449 1448 1446 1448 1454 1454 1446 1440 1441 1444 1445 1444 1445 1447 1445 1443 1446 1449 1450 1453 1456 1459 1462 1465 1468 1472 1475 1475 1474 1477 1481 1485 1489 1493 1495 1498 1501 1505 1508 1512 1516 1520 1524 1527 1530 1534 1537 1540 1542 1544 1546 1549 1551 1553 1555 1556 1558 1560 1562 1563 1564 1566 1567 1569 1570 1571 1572 1573 1574 1574 1574 1574 1574 1573 1573 1573 1572 1572 1572 1572 1571
1438 1436 1435 1441 1447 1449 1450 1449 1449 1451 1446 1437 1435 1440 1444 1446 1444 1445 1449 1446 1439 1441 1446 1447 1450 1455 1457 1460 1463 1465 1468 1470 1467 1464 1469 1477 1481 1486 1490 1493 1497 1501 1504 1507 1510 1514 1519 1523 1527 1530 1533 1536 1539 1541 1543 1546 1548 1551 1553 1555 1556 1559 1560 1562 1563 1564 1566 1567 1568 1570 1571 1572 1573 1573 1574 1574 1574 1573 1573 1573 1573 1573 1572 1572 1572 1572
1441 1440 1439 1442 1444 1446 1449 1448 1442 1440 1439 1437 1438 1442 1444 1444 1445 1449 1454 1446 1435 1438 1443 1444 1447 1452 1454 1458 1461 1462 1462 1461 1458 1458 1466 1474 1479 1485 1489 1491 1495 1499 1502 1505 1509 1514 1518 1522 1526 1529 1532 1535 1537 1540 1543 1546 1548 1551 1553 1555 1557 1559 1560 1562 1563 1564 1566 1567 1568 1570 1571 1572 1573 1573 1574 1574 1574 1573 1573 1573 1573 1573 1573 1573 1573 1573
1440 1441 1441 1442 1441 1442 1447 1448 1439 1434 1436 1440 1441 1441 1443 1445 1448 1450 1449 1440 1435 1439 1442 1443 1446 1450 1451 1455 1457 1457 1458 1459 1459 1460 1465 1472 1478 1483 1487 1490 1494 1497 1500 1504 1509 1514 1518 1522 1526 1528 1531 1534 1536 1540 1543 1545 1548 1550 1552 1555 1557 1558 1560 1562 1563 1564 1565 1567 1568 1570 1571 1572 1573 1573 1573 1574 1573 1573 1574 1574 1574 1573 1573 1573 1574 1573
1440 1441 1441 1441 1439 1438 1440 1444 1440 1435 1437 1440 1441 1443 1444 1446 1446 1444 1439 1437 1438 1441 1442 1444 1447 1449 1451 1453 1455 1457 1459 1461 1462 1463 1466 1471 1477 1480 1484 1488 1492 1495 1498 1502 1508 1513 1517 1521 1525 1528 1531 1533 1536 1539 1542 1545 1547 1549 1552 1554 1556 1558 1560 1561 1563 1564 1566 1567 1569 1570 1570 1571 1572 1572 1573 1573 1573 1574 1574 1574 1574 1574 1574 1574 1574 1573
1433 1437 1438 1437 1437 1437 1439 1444 1444 1440 1438 1438 1440 1444 1445 1443 1440 1439 1438 1439 1441 1441 1442 1446 1447 1448 1451 1454 1456 1459 1461 1462 1464 1466 1469 1473 1476 1479 1483 1486 1490 1493 1496 1501 1507 1511 1515 1520 1523 1526 1529 1532 1535 1538 1541 1544 1546 1549 1551 1554 1556 1558 1560 1561 1563 1564 1566 1567 1568 1569 1570 1571 1572 1572 1573 1573 1573 1574 1574 1574 1574 1574 1574 1574 1574 1574
1428 1431 1431 1430 1432 1437 1440 1441 1439 1435 1434 1436 1438 1440 1441 1440 1440 1440 1440 1440 1441 1442 1444 1445 1447 1449 1451 1453 1456 1459 1461 1463 1466 1468 1470 1474 1476 1479 1482 1486 1488 1491 1495 1500 1506 1511 1514 1518 1522 1525 1528 1532 1535 1538 1540 1543 1545 1548 1551 1553 1555 1558 1560 1561 1563 1564 1566 1567 1568 1569 1570 1571 1572 1572 1573 1573 1574 1574 1574 1574 1575 1575 1575 1575 1575 1575
1432 1432 1433 1430 1429 1432 1433 1433 1433 1434 1435 1437 1438 1439 1440 1441 1442 1442 1441 1441 1442 1443 1444 1445 1447 1449 1451 1454 1456 1458 1460 1463 1465 1467 1470 1473 1476 1478 1482 1485 1487 1490 1495 1501 1506 1509 1514 1518 1521 1524 1528 1531 1534 1537 1540 1542 1545 1547 1551 1553 1555 1557 1559 1561 1563 1564 1566 1567 1568 1569 1570 1571 1572 1572 1573 1573 1574 1574 1575 1575 1575 1576 1576 1575 1576 1576
1434 1435 1435 1432 1430 1431 1433 1433 1435 1436 1437 1438 1440 1441 1441 1442 1442 1442 1443 1443 1443 1444 1445 1447 1448 1449 1451 1453 1455 1457 1460 1462 1464 1467 1470 1472 1474 1477 1481 1484 1487 1490 1495 1500 1504 1508 1513 1517 1520 1523 1526 1530 1534 1536 1539 1542 1544 1547 1550 1552 1555 1557 1559 1561 1563 1564 1566 1567 1568 1570 1570 1571 1572 1572 1573 1573 1574 1575 1575 1576 1576 1576 1576 1576 1576 1576
1434 1435 1434 1433 1432 1434 1434 1433 1434 1436 1437 1439 1440 1441 1442 1442 1443 1443 1443 1444 1444 1445 1446 1447 1448 1449 1451 1452 1454 1456 1459 1461 1463 1466 1469 1471 1473 1475 1478 1481 1485 1490 1494 1498 1502 1507 1512 1515 1518 1522 1525 1529 1532 1535 1538 1542 1544 1547 1550 1552 1554 1557 1559 1561 1562 1564 1566 1567 1568 1570 1571 1571 1572 1572 1573 1573 1574 1575 1576 1576 1576 1576 1576 1576 1576 1576
1434 1436 1434 1432 1432 1433 1433 1433 1435 1437 1438 1438 1440 1441 1442 1443 1443 1443 1444 1444 1445 1445 1446 1447 1448 1449 1451 1452 1454 1456 1458 1460 1463 1465 1467 1470 1472 1474 1477 1480 1483 1488 1493 1497 1501 1506 1510 1513 1517 1520 1524 1527 1531 1534 1538 1541 1544 1547 1549 1551 1554 1556 1558 1560 1562 1564 1565 1567 1568 1570 1571 1571 1572 1572 1573 1574 1575 1576 1576 1576 1576 1576 1576 1576 1576 1576
1435 1435 1433 1432 1432 1431 1431 1432 1434 1435 1435 1436 1438 1440 1441 1442 1443 1444 1444 1444 1445 1446 1446 1447 1448 1449 1451 1452 1454 1456 1458 1460 1462 1463 1466 1469 1471 1473 1476 1478 1482 1487 1491 1495 1499 1504 1508 1511 1515 1518 1522 1526 1530 1533 1537 1541 1544 1547 1549 1551 1553 1555 1557 1560 1562 1563 1565 1567 1568 1569 1571 1571 1572 1573 1574 1575 1575 1576 1576 1576 1576 1576 1576 1575 1574 1574
1434 1431 1431 1433 1433 1431 1430 1431 1433 1432 1432 1434 1437 1439 1440 1441 1442 1443 1444 1444 1445 1446 1446 1447 1448 1449 1451 1452 1454 1456 1458 1460 1462 1464 1466 1468 1470 1473 1476 1478 1482 1485 1489 1493 1498 1503 1507 1510 1513 1517 1521 1525 1529 1533 1537 1541 1544 1546 1547 1550 1552 1554 1557 1559 1561 1563 1565 1566 1568 1569 1570 1571 1572 1573 1574 1575 1575 1575 1575 1574 1574 1575 1575 1574 1574 1573
1432 1430 1430 1432 1432 1431 1431 1433 1434 1433 1433 1434 1437 1438 1439 1440 1442 1443 1444 1444 1444 1445 1445 1446 1447 1448 1450 1452 1454 1456 1457 1459 1461 1463 1466 1468 1470 1473 1476 1479 1481 1483 1487 1491 1495 1499 1504 1508 1512 1515 1520 1523 1528 1532 1536 1540 1542 1544 1546 1549 1551 1554 1556 1558 1560 1562 1564 1566 1567 1568 1569 1571 1572 1572 1573 1574 1575 1575 1575 1574 1574 1574 1574 1574 1573 1573